60-min_data_Yukidori_2012.csv,,,,,,,,
TIMESTAMP,Wind_speed,Wind_direction,Air_Temp,Humidity,Solar radiation,PAR,UV,Air pressure
(yyyy/mm/dd hh:mm),(m/s),(degree),(��),(%),(W/m^2),(micro-mol/m^2/s),(W/m^2),(hPa)
,Avg,Avg,Smp,Smp,Avg,Avg,Avg,Smp
2012/1/1 0:00,0.408,267.7,-0.328,67.96,11.60234,29.94629,1.03984,989.9254
2012/1/1 1:00,0.595,271.5,-0.404,70.48,10.41908,27.44789,0.9650342,989.5517
2012/1/1 2:00,0.639,321.97,-0.153,68.82,16.81048,40.39182,1.377022,989.0534
2012/1/1 3:00,1.642,43.5,0.517,51.45,31.12507,69.45789,2.363867,988.5551
2012/1/1 4:00,2.618,75.1,1.019,48.8,56.06161,125.1929,3.83884,987.9322
2012/1/1 5:00,1.954,65.2,1.438,46.12,112.9552,236.3958,6.726392,987.4339
2012/1/1 6:00,1.715,81.6,1.104,42.79,107.4915,239.6901,9.739967,986.811
2012/1/1 7:00,1.802,66.5,2.948,31.44,165.1124,361.7422,13.8112,985.939
2012/1/1 8:00,1.845,86.6,2.069,33.55,215.0459,463.376,18.13622,985.5652
2012/1/1 9:00,1.588,7.55,2.569,36.5,314.7721,664.7963,23.52378,984.8177
2012/1/1 10:00,1.003,285.4,4.208,35,691.0795,1323.371,35.44622,984.0703
2012/1/1 11:00,1.125,314.12,4.292,30.52,750.8134,1459.626,40.01799,983.572
2012/1/1 12:00,1.759,284,4.454,27.52,825.5197,1589.691,43.31536,982.9491
2012/1/1 13:00,2.248,268.4,3.666,33.57,842.7844,1620.235,44.28086,982.0771
2012/1/1 14:00,2.393,250.2,3.951,30.17,806.629,1583.552,43.21342,981.1385
2012/1/1 15:00,2.21,260.8,4.076,29.82,778.6199,1456.375,40.33394,979.9624
2012/1/1 16:00,2.616,256.8,3.526,35.84,703.7258,1344.504,35.86866,979.4534
2012/1/1 17:00,2.513,262,4.037,32.51,606.2616,1154.872,30.25648,978.7064
2012/1/1 18:00,2.138,260.2,3.948,29.08,496.3835,940.1131,23.99757,978.2085
2012/1/1 19:00,1.936,261.2,4.364,29.65,380.5768,715.3895,17.69506,977.586
2012/1/1 20:00,1.593,266,3.901,30.54,271.0174,506.6326,12.08596,977.2125
2012/1/1 21:00,3.188,71.7,1.995,38.01,173.4773,322.0241,7.585742,976.839
2012/1/1 22:00,2.312,56.5,1.736,40.08,100.3727,184.1851,4.442304,976.4656
2012/1/1 23:00,3.004,68.3,0.628,40.22,42.99139,87.95316,2.557886,976.3411
2012/1/2 0:00,3.582,78.5,-0.031,39.71,25.25708,53.41826,1.622122,976.092
2012/1/2 1:00,3.196,67.2,-0.365,41.2,9.843575,35.12706,1.347478,975.8431
2012/1/2 2:00,3.756,71.2,-1.456,42.05,10.88309,40.59806,1.690493,975.7186
2012/1/2 3:00,3.992,73.7,-1.749,44.23,15.03992,55.38917,2.694261,975.6403
2012/1/2 4:00,3.831,75.5,-1.791,41.45,20.53301,75.15995,4.478215,975.4745
2012/1/2 5:00,3.501,74.4,-1.81,42.75,26.91668,96.57959,6.92996,975.5991
2012/1/2 6:00,3.324,74.1,-1.828,42.55,33.32542,117.6702,9.756854,975.5991
2012/1/2 7:00,2.396,70.3,-0.238,36.57,226.9489,441.2081,15.64248,975.7236
2012/1/2 8:00,1.79,308.2,-0.864,47.92,506.3185,933.1436,24.09619,975.9728
2012/1/2 9:00,1.174,272.6,0.686,41.12,614.7751,1147.185,30.28038,975.8483
2012/1/2 10:00,2.277,262.3,0.81,39.49,710.6367,1337.073,35.60683,975.8483
2012/1/2 11:00,2.144,201.3,1.312,39.73,784.8685,1486.356,40.33854,975.9728
2012/1/2 12:00,2.536,195.2,1.077,48.49,831.3457,1581.598,43.20296,976.0974
2012/1/2 13:00,2.606,203.5,1.294,45.46,847.9555,1620.144,44.28465,975.8483
2012/1/2 14:00,2.859,209.1,1.519,49.44,812.1561,1589.015,43.35439,975.8483
2012/1/2 15:00,3.238,231.4,2.072,46.26,765.6145,1464.788,39.05666,975.347
2012/1/2 16:00,3.092,224.9,2.3,42.66,712.647,1360.53,36.09823,975.0961
2012/1/2 17:00,2.579,217.5,2.511,43.07,610.0253,1161.207,30.34029,974.9717
2012/1/2 18:00,2.302,218.8,2.092,48.54,494.6192,939.7721,23.99208,974.9717
2012/1/2 19:00,2.131,241.6,1.629,49.52,379.4638,715.593,17.70547,974.7227
2012/1/2 20:00,2.138,264,1.713,47.83,272.2325,505.7429,12.07239,974.7227
2012/1/2 21:00,1.616,271.9,0.583,54.93,176.983,326.8594,7.561534,974.9717
2012/1/2 22:00,1.594,348.49,-0.966,62.33,107.0111,194.9397,4.362176,975.3451
2012/1/2 23:00,1.569,357.14,0.208,54.69,29.90807,70.8462,2.440792,975.4696
2012/1/3 0:00,2.228,74.2,-0.1,55.03,21.56624,46.98029,1.554875,975.9676
2012/1/3 1:00,2.192,76.4,-0.377,54.62,11.41006,34.03185,1.308514,975.8569
2012/1/3 2:00,0.926,269.8,-1.132,62.64,16.91165,38.61915,1.212634,975.9932
2012/1/3 3:00,0.801,245.3,-0.505,60.69,23.20815,54.59162,1.760494,976.222
2012/1/3 4:00,0.872,219.9,-0.59,66.67,35.66798,86.17065,2.684509,976.3466
2012/1/3 5:00,1.745,86.3,1.283,49.61,76.63611,176.2238,5.336351,976.3466
2012/1/3 6:00,1.667,47.9,1.973,47.37,135.6444,306.5654,8.921368,976.5957
2012/1/3 7:00,1.902,37.6,2.434,44.31,211.054,467.1602,13.56215,976.8448
2012/1/3 8:00,2.676,58.6,3.567,39.66,482.3675,954.3584,23.61441,976.8448
2012/1/3 9:00,3.861,74.8,3.814,39.79,633.9016,1202.504,30.5683,976.9695
2012/1/3 10:00,2.96,76.5,4.554,38.23,665.2963,1284.104,34.418,976.8448
2012/1/3 11:00,1.788,288.9,4.996,36.94,769.9447,1487.319,40.12042,976.9695
2012/1/3 12:00,1.723,257.8,4.569,43.38,808.4691,1578.415,42.85587,977.081
2012/1/3 13:00,2.164,222.5,5.408,39.98,826.5807,1612.124,43.89751,976.7238
2012/1/3 14:00,2.456,226.3,5.689,36.62,829.8538,1654.575,44.20889,976.5901
2012/1/3 15:00,2.1,200.8,5.906,33.87,768.6873,1473.445,40.35482,976.2166
2012/1/3 16:00,2.611,220.8,5.741,33.97,685.0896,1338.504,35.64584,975.7186
2012/1/3 17:00,2.745,212.2,5.743,37.6,591.211,1150.402,30.07961,974.9717
2012/1/3 18:00,2.682,215.5,6.155,38.58,480.3287,930.8787,23.81048,974.3492
2012/1/3 19:00,2.419,206.7,5.319,40.38,372.7596,717.0869,17.64486,973.7267
2012/1/3 20:00,2.673,208.5,5.987,36.23,265.2185,504.5752,12.00874,973.2288
2012/1/3 21:00,2.471,195.2,5.736,39.12,168.6472,320.3236,7.503186,972.8553
2012/1/3 22:00,3.923,74.6,3.848,33.89,94.34326,180.7755,4.354561,972.2328
2012/1/3 23:00,6.675,76.9,2.927,33.82,41.4703,85.15215,2.474468,971.9838
2012/1/4 0:00,6.813,79.3,2.423,32.87,22.541,50.25312,1.538343,971.3613
2012/1/4 1:00,7.134,81.3,1.895,32.27,9.53658,33.91597,1.312708,970.7389
2012/1/4 2:00,7.339,79.1,1.46,34,10.51143,39.02791,1.583841,969.8674
2012/1/4 3:00,7.124,84.4,1.146,35.29,14.59237,53.72945,2.557767,968.996
2012/1/4 4:00,7.123,86.9,0.71,37.98,19.70961,73.34625,4.306693,968.0001
2012/1/4 5:00,7.099,79.8,0.75,40.74,26.0131,94.64478,6.714606,967.463
2012/1/4 6:00,6.157,75.2,1.006,41.18,32.67744,116.1944,9.505132,966.6296
2012/1/4 7:00,5.791,79,2.172,39.89,207.462,414.5277,15.0901,966.0067
2012/1/4 8:00,5.107,79.2,2.792,42.13,495.3471,923.7305,23.65154,965.3838
2012/1/4 9:00,4.561,69.6,3.442,44.58,595.3448,1126.178,29.62358,965.2592
2012/1/4 10:00,5.543,66.5,4.492,39.99,673.6512,1291.588,34.48312,965.5084
2012/1/4 11:00,4.726,68.1,5.421,37.92,726.7412,1467.828,39.35577,965.5084
2012/1/4 12:00,1.951,285.9,4.945,49.3,579.6451,1301.479,37.00176,965.7576
2012/1/4 13:00,2.361,248.8,4.023,50.45,382.7682,954.6075,28.5348,965.8223
2012/1/4 14:00,2.458,244.6,4.608,48.1,397.2157,1004.975,27.46611,965.9276
2012/1/4 15:00,2.485,205.6,4.19,60.6,431.5155,987.2413,28.10787,965.8837
2012/1/4 16:00,2.461,224.8,4.975,44.6,684.149,1346.677,35.32205,965.6347
2012/1/4 17:00,2.522,202.1,5.122,46.54,507.9508,1017.095,28.03839,965.1367
2012/1/4 18:00,2.767,237.8,4.777,46.71,405.3226,814.2866,22.38932,964.7632
2012/1/4 19:00,2.095,243.2,3.81,59.07,316.0987,625.7702,16.5855,964.5143
2012/1/4 20:00,1.415,286.8,3.81,60.26,309.1159,608.8587,13.23301,964.6388
2012/1/4 21:00,1.284,288.4,2.844,67.83,201.9901,415.2737,7.996306,964.8878
2012/1/4 22:00,1.423,281,4.216,51.53,58.74682,133.9561,3.838598,965.1367
2012/1/4 23:00,2.777,69.9,4.269,47.52,32.76508,70.28308,2.23719,965.1367
2012/1/5 0:00,3.766,77.4,3.641,44.23,18.2818,40.48236,1.352118,965.2612
2012/1/5 1:00,4.917,88.7,3.557,44.33,12.69443,30.25507,1.071629,965.3857
2012/1/5 2:00,5.035,89.7,3.366,43.04,13.84814,34.46549,1.363623,965.6347
2012/1/5 3:00,5.917,87.1,3.056,38.93,20.2186,51.55693,2.300928,965.7592
2012/1/5 4:00,6.132,87.8,3.31,35.97,34.13772,85.66768,3.943901,966.1669
2012/1/5 5:00,5.952,74.9,2.89,35.84,70.88521,167.1872,6.785838,966.2856
2012/1/5 6:00,6.616,74.5,2.973,37.78,137.2639,317.1027,10.98748,966.505
2012/1/5 7:00,6.19,80.8,3.309,37.44,228.2231,492.7334,15.8219,966.7542
2012/1/5 8:00,5.29,84,4.023,36.49,451.3144,889.8155,23.42221,966.7542
2012/1/5 9:00,4.887,85.3,4.283,36.05,449.3087,896.4553,26.02661,967.377
2012/1/5 10:00,3.29,54.7,5.575,32.18,578.052,1145.618,32.16575,967.9999
2012/1/5 11:00,1.906,29.18,6.331,34.68,717.7697,1411.446,38.69566,968.338
2012/1/5 12:00,2.403,20.71,5.869,43.41,792.7412,1556.847,42.39966,968.7526
2012/1/5 13:00,2.469,17.21,6.455,43.17,818.506,1606.318,43.67721,969.1205
2012/1/5 14:00,2.258,19.15,6.706,43.82,685.347,1396.704,39.80798,969.7429
2012/1/5 15:00,2.026,9.4,6.664,42.49,689.26,1354.309,38.36079,970.4899
2012/1/5 16:00,1.929,352.19,6.687,44.94,673.1309,1346.391,35.82186,971.2369
2012/1/5 17:00,1.727,278.6,6.079,51.62,583.6108,1182.392,30.89953,971.6104
2012/1/5 18:00,2.318,253.3,4.856,56.54,428.3976,884.2515,23.07053,971.9838
2012/1/5 19:00,2.271,268,4.393,56.3,332.5062,658.3447,16.74346,972.1083
2012/1/5 20:00,1.532,294.5,5.275,54.6,297.5154,570.5523,12.12563,972.3573
2012/1/5 21:00,1.394,307.6,3.514,57.96,124.6136,258.6139,6.973797,972.6063
2012/1/5 22:00,1.009,264.1,3.511,60.78,93.05406,178.3949,4.213969,972.8553
2012/1/5 23:00,1.532,258.3,4.268,54.77,40.17267,83.74866,2.367199,972.9797
2012/1/6 0:00,1.591,60.9,3.177,56.5,16.35382,42.15357,1.439325,972.9797
2012/1/6 1:00,1.515,71,3.347,53.24,9.082711,29.97125,1.167587,973.2288
2012/1/6 2:00,2.671,69.9,3.102,50.88,11.39349,36.30824,1.470083,973.3533
2012/1/6 3:00,3.038,68.2,2.928,51.05,19.64052,58.2654,2.439276,973.4777
2012/1/6 4:00,3.266,67.5,2.719,49.83,31.05885,90.39668,4.220622,973.4777
2012/1/6 5:00,2.844,66.3,2.679,49.46,29.70668,102.9007,6.600379,973.3533
2012/1/6 6:00,2.077,69.5,1.298,65.12,35.62668,125.3135,9.492306,973.6404
2012/1/6 7:00,1.272,266.1,0.417,69.3,195.3646,403.4125,14.99993,974.1521
2012/1/6 8:00,1.122,267.5,1.381,64.35,481.8038,917.4839,23.48902,974.1036
2012/1/6 9:00,1.053,265.9,2.261,64.11,582.3392,1120.177,29.45716,973.9185
2012/1/6 10:00,1.572,262.9,2.596,61.18,679.9514,1314.748,34.84684,973.6669
2012/1/6 11:00,1.797,258.8,2.43,62.02,754.8911,1464.329,39.59017,973.7269
2012/1/6 12:00,1.864,266.9,3.725,54.45,803.5354,1560.971,42.45256,973.7267
2012/1/6 13:00,1.717,249.7,5.32,46.94,816.1584,1594.018,43.41229,973.6022
2012/1/6 14:00,1.716,196.5,5.696,47.62,778.2061,1562.852,42.45069,973.6022
2012/1/6 15:00,1.459,220.2,5.707,45.89,746.6703,1436.547,39.61858,973.6022
2012/1/6 16:00,1.573,310.2,4.31,54.95,675.2691,1324.532,35.25306,973.6022
2012/1/6 17:00,1.484,277.7,4.56,52.67,583.6952,1137.371,29.72343,973.4777
2012/1/6 18:00,1.389,277.1,4.059,59.8,476.7047,924.423,23.53955,973.3533
2012/1/6 19:00,1.318,263.7,3.345,66.55,365.9083,702.9844,17.32871,972.9797
2012/1/6 20:00,1.473,265.7,2.885,66.69,259.7956,491.4625,11.73536,972.7308
2012/1/6 21:00,1.275,267.3,2.507,65.57,163.9579,309.3082,7.280359,972.6063
2012/1/6 22:00,1.288,260.2,1.794,72.05,90.05348,169.8064,4.172943,972.4818
2012/1/6 23:00,1.086,255.6,0.581,79.52,37.89815,78.93176,2.325646,972.3573
2012/1/7 0:00,0.91,257.7,0.247,78.64,18.17986,43.64321,1.405778,972.1083
2012/1/7 1:00,1.112,246.2,-0.175,81.1,8.427752,30.5432,1.167242,972.1083
2012/1/7 2:00,2.505,68.8,2.047,47.69,10.84252,35.66763,1.424882,971.8594
2012/1/7 3:00,2.867,63.1,1.588,45.89,13.6682,50.68807,2.35431,971.6104
2012/1/7 4:00,2.811,65.4,1.283,45.96,19.08999,71.16306,4.068176,971.3613
2012/1/7 5:00,1.799,68.5,1.338,45.41,25.52605,93.02993,6.48199,970.8736
2012/1/7 6:00,0.915,342.41,-0.546,67.78,31.23331,114.8934,9.328347,970.8323
2012/1/7 7:00,0.813,281.1,1.511,58.75,187.5918,377.2871,14.61654,970.3669
2012/1/7 8:00,0.956,268.4,0.904,63,481.838,903.7373,23.27205,969.8685
2012/1/7 9:00,1.268,262.6,0.983,65.07,590.8288,1118.715,29.47321,969.6194
2012/1/7 10:00,1.504,270.5,1.297,63.3,688.6886,1310.678,34.82673,969.2457
2012/1/7 11:00,1.569,272.2,1.968,59.93,763.1544,1462.891,39.6111,968.8307
2012/1/7 12:00,1.692,269.2,1.549,68.31,812.394,1561.303,42.54618,968.1843
2012/1/7 13:00,2.116,261.1,1.758,62.94,831.116,1596.887,43.63578,967.5021
2012/1/7 14:00,2.087,271.9,2.832,49.97,795.5722,1567.377,42.7295,966.8796
2012/1/7 15:00,2.097,273.9,2.68,55.94,765.2541,1439.313,39.86026,966.2572
2012/1/7 16:00,2.046,267.9,2.344,60.16,689.5585,1328.538,35.44527,965.7592
2012/1/7 17:00,1.489,282.1,3.095,56.76,593.3488,1140.961,29.87934,965.1367
2012/1/7 18:00,1.481,279.6,1.99,65.05,483.1024,927.9633,23.65601,964.6388
2012/1/7 19:00,1.261,281.3,1.597,68.04,371.2424,706.0306,17.40212,964.2653
2012/1/7 20:00,1.278,279.7,1.127,69.35,263.0401,494.317,11.77203,963.8918
2012/1/7 21:00,0.926,298.6,1.542,65.34,166.5092,310.6438,7.270205,963.5183
2012/1/7 22:00,0.962,316.421,1.334,63.95,91.52738,170.0105,4.141363,963.1448
2012/1/7 23:00,1.22,280.7,0.621,70.51,38.2547,78.17431,2.283627,962.8959
2012/1/8 0:00,2.725,65.4,2.346,33.19,17.97396,41.95756,1.359427,962.7714
2012/1/8 1:00,3.855,69.9,1.709,33.36,8.012756,29.19136,1.089502,962.6469
2012/1/8 2:00,4.205,68.2,1.001,34.65,9.090928,34.31743,1.373276,962.7714
2012/1/8 3:00,3.9,69.8,1.044,31.93,13.07331,48.90528,2.295174,963.0204
2012/1/8 4:00,4.686,64.8,0.417,36.55,18.86596,69.59917,4.004305,963.1061
2012/1/8 5:00,5.562,71.8,0.376,36.19,24.94176,91.12183,6.413251,963.1395
2012/1/8 6:00,5.996,80.4,0.627,37.65,31.37189,112.1088,9.222372,963.5151
2012/1/8 7:00,3.743,57.2,1.508,33.47,179.9944,365.5487,14.40162,964.2626
2012/1/8 8:00,3.542,50.6,2.247,34.01,485.2704,901.553,23.18611,964.5117
2012/1/8 9:00,2.594,38.4,2.374,44.07,591.616,1115.63,29.35902,965.0101
2012/1/8 10:00,1.749,276.5,-0.837,68.33,686.9598,1308.182,34.77322,965.7576
2012/1/8 11:00,2.068,266.5,-0.738,68.09,767.1627,1461.475,39.6847,966.1312
2012/1/8 12:00,2.1,264.4,-0.337,66.19,813.8168,1559.215,42.61177,966.7542
2012/1/8 13:00,1.853,275,0.124,68.08,827.1627,1594.438,43.67564,967.0739
2012/1/8 14:00,2.054,265,0.291,69.77,791.7148,1565.824,42.80431,967.4429
2012/1/8 15:00,2.179,268.1,0.082,70.96,762.9481,1439.745,39.96896,967.7627
2012/1/8 16:00,2.359,271,-0.797,75.92,694.9486,1338.792,35.40892,968.249
2012/1/8 17:00,2.12,266.2,-1.173,79.76,546.5822,1078.909,26.93603,968.3735
2012/1/8 18:00,1.978,260.8,-1.559,82.1,288.0919,603.129,15.90172,968.6226
2012/1/8 19:00,1.888,263.1,-1.989,83.5,172.023,369.4274,9.81461,968.6226
2012/1/8 20:00,1.67,267,-2.14,86.6,112.669,254.9426,6.282212,968.747
2012/1/8 21:00,1.437,237.3,-1.635,85.2,61.96377,140.7451,3.752831,968.6226
2012/1/8 22:00,1.322,205.9,-1.843,85.7,55.79821,120.2807,2.984301,969.0691
2012/1/8 23:00,1.379,245.4,-2.388,90.4,48.79813,87.22885,1.352159,969.7205
2012/1/9 0:00,1.246,300.4,-1.761,85.1,21.193,36.52318,0.6264521,970.3663
2012/1/9 1:00,1.139,263.8,-2.446,91.1,15.66087,28.84011,0.6281959,971.1143
2012/1/9 2:00,0.724,261.3,-2.399,89.6,12.53885,29.83741,0.9089749,971.3635
2012/1/9 3:00,1.216,260.4,-2.552,88.3,17.1945,44.61354,1.490623,971.8618
2012/1/9 4:00,1.234,192,-1.297,71.27,33.16044,83.70105,2.722382,972.111
2012/1/9 5:00,0.79,242,-1.003,64.13,60.14754,147.6052,4.720249,972.2355
2012/1/9 6:00,1.036,211.8,-0.627,64.28,103.795,245.459,7.663318,972.4847
2012/1/9 7:00,1.456,247,0.127,53.16,134.089,329.4443,9.823536,972.3601
2012/1/9 8:00,1.558,14.31,0.632,52.99,211.4391,506.038,14.56693,972.2355
2012/1/9 9:00,1.674,40.5,0.882,51.56,216.9514,544.0253,15.91468,972.2355
2012/1/9 10:00,1.934,43.3,1.302,50.48,173.0121,496.7178,14.78952,972.2355
2012/1/9 11:00,1.691,18.89,0.588,66.42,246.876,664.2285,19.63778,972.4847
2012/1/9 12:00,1.722,273.2,1.681,58.9,515.4866,1145.559,32.85582,972.3601
2012/1/9 13:00,1.937,272.7,1.175,65.08,439.3211,1023.426,29.81977,972.2355
2012/1/9 14:00,2.182,266.3,2.434,58.86,306.5472,783.9702,23.18529,972.3601
2012/1/9 15:00,1.511,284.5,3.02,51.52,320.135,786.4174,22.7385,972.111
2012/1/9 16:00,1.806,265.6,2.461,56.51,321.7956,778.8953,22.03829,972.111
2012/1/9 17:00,1.676,195,3.176,53.58,238.2041,589.0067,17.76765,971.7372
2012/1/9 18:00,1.34,313.461,3.273,50.83,327.8011,713.9164,18.65154,971.3635
2012/1/9 19:00,2.268,33.5,3.687,46.38,291.991,594.0131,15.93776,971.2389
2012/1/9 20:00,2.14,49.3,3.477,47.5,267.6113,499.0196,11.4444,971.1135
2012/1/9 21:00,1.941,85.2,3.35,40.7,159.3,296.6305,6.944304,971.1654
2012/1/9 22:00,1.991,76.4,2.723,36.38,88.57629,162.6411,3.915576,971.0525
2012/1/9 23:00,2.977,83.3,1.549,37.44,32.18409,66.08275,2.034049,970.7751
2012/1/10 0:00,4.07,63.8,2.218,32.41,9.821208,25.58572,1.145985,970.9336
2012/1/10 1:00,5.335,66.9,0.877,37.34,11.18665,25.88443,0.9027646,971.3635
2012/1/10 2:00,3.839,82.1,-0.421,40.16,26.18262,54.14473,1.204565,971.2389
2012/1/10 3:00,6.151,84.7,1.29,28.64,50.31873,101.8713,2.214448,971.488
2012/1/10 4:00,6.616,89.6,0.823,29.32,60.22684,142.6667,4.196994,971.3635
2012/1/10 5:00,6.176,90.2,-0.125,33.13,108.3494,254.2592,7.734572,971.2389
2012/1/10 6:00,6.883,89,0.044,32.73,63.70751,184.1151,9.967388,970.9897
2012/1/10 7:00,6.369,83.5,0.587,34.12,170.4288,351.3643,14.05631,970.3669
2012/1/10 8:00,6.409,80.4,1.344,33,485.001,888.8291,22.62757,970.3669
2012/1/10 9:00,5.869,81.3,2.559,32.97,591.442,1097.208,28.68182,970.2423
2012/1/10 10:00,5.28,72,2.77,36.09,687.0075,1286.876,33.97593,969.8685
2012/1/10 11:00,3.181,51.9,3.946,30.79,763.3586,1442.666,38.84239,969.6194
2012/1/10 12:00,2.263,260.4,4.267,35.17,805.5538,1543.63,41.79243,968.9965
2012/1/10 13:00,2.151,224.7,5.008,33.61,820.7339,1583.68,42.95176,968.3737
2012/1/10 14:00,2.395,232.6,5.322,35.27,786.4271,1553.318,42.04202,967.8754
2012/1/10 15:00,2.238,248.5,5.197,36.04,756.9778,1426.426,39.2444,967.234
2012/1/10 16:00,1.654,305.6,5.197,43.21,681.4939,1316.404,34.89371,966.8799
2012/1/10 17:00,2.473,37.6,6.134,30.6,588.5746,1131.453,29.37604,966.6306
2012/1/10 18:00,2.191,344.52,5.447,34.21,492.7991,950.226,23.72234,966.6306
2012/1/10 19:00,2.693,15.52,4.811,40.25,362.1724,687.1422,16.88877,967.1286
2012/1/10 20:00,2.32,7.09,4.532,39.95,256.2949,481.4825,11.37403,967.3776
2012/1/10 21:00,3.586,69.3,3.772,40.28,166.4108,311.4741,7.022924,967.7511
2012/1/10 22:00,4.262,77.8,3.471,37.47,76.93893,150.1369,3.85695,968.3735
2012/1/10 23:00,4.86,85.2,1.973,41.98,15.52865,45.64243,1.926011,969.6185
2012/1/11 0:00,4.404,85.2,1.168,41.81,7.953714,27.19531,1.134216,970.3654
2012/1/11 1:00,4.41,88.7,0.71,40.42,9.858818,26.6123,0.886574,970.6144
2012/1/11 2:00,6.519,91.7,0.459,37.74,10.94243,31.48532,1.124019,970.8634
2012/1/11 3:00,6.477,90.6,0.081,36.82,18.34888,52.68402,2.023301,971.7263
2012/1/11 4:00,6.605,84.8,0.374,35.64,22.32436,72.61037,3.668967,971.737
2012/1/11 5:00,6.267,82.4,-0.108,38.36,26.54174,91.9559,5.98645,972.2355
2012/1/11 6:00,6.364,82.3,-0.117,40.37,41.69604,129.6639,8.912262,972.3601
2012/1/11 7:00,5.765,75.4,0.796,38.64,181.2935,365.4567,13.57408,972.7338
2012/1/11 8:00,4.735,69.8,1.804,39.22,449.8933,860.9543,22.11204,972.983
2012/1/11 9:00,4.581,66.9,1.68,41.56,473.9488,928.8033,26.37008,973.1075
2012/1/11 10:00,3.956,63.3,2.309,42.14,244.4703,547.1417,23.33377,973.4813
2012/1/11 11:00,4.132,65.9,3.776,36.84,740.3999,1414.128,38.21039,973.855
2012/1/11 12:00,3.038,59.6,3.429,39.42,605.4473,1210.139,36.53871,973.855
2012/1/11 13:00,2.313,26.55,5.007,33.71,870.8809,1686.246,43.6844,973.9796
2012/1/11 14:00,2.42,265.6,4.407,41.49,782.8219,1567.563,41.72985,974.1042
2012/1/11 15:00,2.376,255.1,4.357,38.56,589.7675,1231.998,35.10055,974.3533
2012/1/11 16:00,2.155,237.9,4.107,41.92,713.0024,1406.752,35.55761,974.2755
2012/1/11 17:00,2.461,252.5,4.4,36.18,559.2941,1112.59,28.79428,974.2247
2012/1/11 18:00,2.386,258.3,4.077,36.65,513.8171,998.4123,24.00827,974.2247
2012/1/11 19:00,2.359,266.3,2.971,37.53,312.0883,618.6982,16.23083,973.9757
2012/1/11 20:00,1.862,266.4,3.223,38.76,208.1116,408.6777,10.73851,974.1002
2012/1/11 21:00,1.577,243,3.211,39.95,155.6447,296.5666,6.802916,974.1002
2012/1/11 22:00,1.098,295.6,2.505,39.47,75.79022,145.1477,3.741497,974.3492
2012/1/11 23:00,1.029,260.1,0.414,60.8,32.87701,68.41507,1.997173,974.3492
2012/1/12 0:00,0.837,259.7,-0.381,63.96,10.07856,31.59732,1.130624,974.4736
2012/1/12 1:00,0.661,273.3,-0.42,60.56,6.294914,22.61176,0.8760365,974.5981
2012/1/12 2:00,0.508,248.7,0.333,55.03,8.545238,28.17359,1.113793,974.3492
2012/1/12 3:00,1.791,66.1,-2.179,69.57,12.99057,45.8422,1.949899,974.6936
2012/1/12 4:00,1.485,128.4,-1.384,60.68,24.66062,75.31161,3.589868,974.8498
2012/1/12 5:00,2.459,63.7,-0.69,53.14,27.34742,94.94414,5.941667,974.6025
2012/1/12 6:00,2.1,66.5,-1.814,66.36,38.09703,127.1546,8.889753,974.6025
2012/1/12 7:00,1.184,261.9,-0.792,67.62,141.6387,307.6364,13.34266,974.3533
2012/1/12 8:00,3.211,79.4,-1.591,71.23,504.7876,947.7636,22.75834,974.3533
2012/1/12 9:00,2.002,42.9,-1.086,73.27,582.6638,1151.508,28.66315,974.3533
2012/1/12 10:00,2.407,270,-0.543,73.17,636.7947,1281.373,32.93024,974.3533
2012/1/12 11:00,1.859,275.6,-0.004,72.69,608.756,1284.714,33.47706,974.3533
2012/1/12 12:00,2.028,281.8,-0.857,84,502.8047,1111.04,29.7871,974.3533
2012/1/12 13:00,1.904,257,-1.005,84.5,376.1509,858.1058,23.95552,974.1042
2012/1/12 14:00,1.895,248.3,-1.38,84.1,201.6877,495.621,14.15873,973.9796
2012/1/12 15:00,1.865,253.9,-1.509,84.9,154.7747,384.7433,10.92258,973.9796
2012/1/12 16:00,1.88,248,-1.787,86,126.7311,317.9471,8.981128,973.9796
2012/1/12 17:00,1.829,240,-1.946,86,115.4108,284.0771,7.960196,973.9796
2012/1/12 18:00,1.752,253.2,-2.17,86,87.54472,216.3466,6.129619,973.855
2012/1/12 19:00,1.691,240.7,-2.247,85.2,48.26782,123.8555,3.483143,973.855
2012/1/12 20:00,1.362,237.6,-2.528,86.3,31.90103,82.32259,2.336675,973.855
2012/1/12 21:00,1.362,254.4,-2.551,86.8,20.27956,51.78897,1.506963,973.855
2012/1/12 22:00,1.628,258.5,-2.425,88.7,9.283887,24.42141,0.7300524,974.2288
2012/1/12 23:00,1.98,253.1,-2.301,87.2,3.660571,10.06585,0.3506856,974.7271
2012/1/13 0:00,1.593,244.7,-2.469,83.7,2.002596,5.477623,0.231904,975.1008
2012/1/13 1:00,1.286,235.1,-2.595,86.2,1.67857,5.053006,0.2130807,975.4745
2012/1/13 2:00,1.253,240.7,-2.971,89.6,2.093398,5.44308,0.2275633,975.7236
2012/1/13 3:00,1.873,258.7,-3.513,91.7,3.320765,9.362369,0.3281503,975.9728
2012/1/13 4:00,1.598,257.2,-3.639,90.2,7.411839,20.0801,0.6026728,976.3466
2012/1/13 5:00,1.431,261.9,-3.659,90.8,14.7191,38.29209,1.133914,976.3466
2012/1/13 6:00,1.616,255.7,-3.617,92.7,24.38518,61.589,1.976053,976.2357
2012/1/13 7:00,1.689,256.3,-3.803,94.4,43.55204,107.2966,3.127317,976.0776
2012/1/13 8:00,1.7,252.5,-3.344,93,52.62682,131.0801,4.125521,975.9755
2012/1/13 9:00,1.769,253.8,-3.385,93.2,87.83172,211.9567,5.921875,975.9756
2012/1/13 10:00,1.72,263.8,-3.052,92.2,100.2554,245.3612,6.816998,976.1002
2012/1/13 11:00,1.334,265.3,-2.925,90.8,94.27646,238.7639,6.673421,975.9756
2012/1/13 12:00,1.293,257.3,-2.84,90,110.8984,280.0991,7.853487,975.9756
2012/1/13 13:00,1.291,255.2,-1.753,86.2,224.4663,518.3242,14.28784,975.2279
2012/1/13 14:00,1.935,253.2,-1.502,83.2,252.5793,574.3533,16.15732,974.4802
2012/1/13 15:00,1.752,218.9,-1.335,82.8,243.7637,548.7537,15.19658,973.4833
2012/1/13 16:00,2.215,245.4,-1.397,83.5,148.0902,358.6684,9.650211,972.5293
2012/1/13 17:00,2.136,211.7,0.038,75.87,408.7258,814.3225,18.74646,971.2397
2012/1/13 18:00,2.437,206.8,0.35,75.43,516.5469,966.2971,23.15184,969.6195
2012/1/13 19:00,1.98,199.7,0.881,68.97,364.0359,679.04,16.60733,968.6229
2012/1/13 20:00,1.681,258.4,0.087,68.08,252.3468,467.651,11.05008,968.1246
2012/1/13 21:00,1.616,33.4,0.044,59.04,155.1963,285.3337,6.657775,967.6263
2012/1/13 22:00,1.818,74.4,-0.29,47.31,80.23322,147.4138,3.637688,967.5017
2012/1/13 23:00,1.324,125.4,-0.332,38.98,31.47869,63.63007,1.872839,967.3772
2012/1/14 0:00,1.934,52.8,-0.918,36.47,9.634802,29.44411,1.016277,967.5017
2012/1/14 1:00,3.972,43.8,-0.878,38.17,6.457123,22.0866,0.7556102,967.6263
2012/1/14 2:00,5.013,53.5,-1.632,43.58,7.462501,27.0166,0.9852831,967.0034
2012/1/14 3:00,3.713,66.9,-1.883,44.87,15.99256,47.64371,1.79073,966.7543
2012/1/14 4:00,5.473,86,-1.128,43.81,56.05187,118.8192,3.149701,966.256